Regional Weather Roundup
Issued by NWS Little Rock, AR

Home | Current Version | Previous Version | Graphics & Text | Print | Product List | Glossary On
Versions: 1 2 3 4 5 6 7 8 9 10 11 12 13 14 15 16 17 18 19 20 21 22 23 24 25 26 27 28 29 30 31 32 33 34 35 36 37 38 39 40 41 42 43 44 45 46 47 48 49 50
506
ASUS44 KLZK 251305
RWRLZK

WEATHER ROUNDUP FOR ARKANSAS
NATIONAL WEATHER SERVICE LITTLE ROCK AR
800 AM CDT MON JUL 25 2016

NOTE: "FAIR" INDICATES FEW OR NO CLOUDS BELOW 12,000 FEET WITH NO
SIGNIFICANT WEATHER AND/OR OBSTRUCTIONS TO VISIBILITY.

ARZ001-003-010-029-251400-
NORTHWEST ARKANSAS

CITY           SKY/WX    TMP DP  RH WIND       PRES   REMARKS
FAYETTEVILLE   CLOUDY    77  73  87 SW5       30.03S
FORT SMITH     MOSUNNY   78  71  79 CALM      29.99S
HARRISON       MOSUNNY   74  71  91 SE3       30.03S
BENTONVILLE    MOSUNNY   77  66  69 CALM      30.03S
ROGERS         CLOUDY    77  70  79 S5        30.04R
SILOAM SPGS    SUNNY     79  64  61 CALM      30.04R
HIGHFILL       SUNNY     78  72  81 SW6       30.03R
SPRINGDALE     MOSUNNY   79  72  78 S5        30.05R
$$

ARZ004-005-016-251400-
NORTH CENTRAL ARKANSAS

CITY           SKY/WX    TMP DP  RH WIND       PRES   REMARKS
BATESVILLE     MOSUNNY   81  72  74 CALM      29.99S
FLIPPIN        MOSUNNY   77  70  78 SW3       29.97S
MTN HOME       MOSUNNY   76  73  91 CALM      30.00R
$$

ARZ040-041-251400-
WEST CENTRAL ARKANSAS

CITY           SKY/WX    TMP DP  RH WIND       PRES   REMARKS
MENA           SUNNY     79  75  89 CALM      30.03S
MOUNT IDA      SUNNY     74  73  97 CALM      30.00S
$$

ARZ009-017-025-026-028-251400-
NORTHEAST ARKANSAS

CITY           SKY/WX    TMP DP  RH WIND       PRES   REMARKS
CORNING          N/A     79  79 100 S5        29.99S
JONESBORO      PTSUNNY   80  76  87 SW6       29.99S HX  86
NEWPORT        CLOUDY    78  77  97 S5        30.00R
WALNUT RIDGE   MOSUNNY   79  73  83 S6        29.99R
BLYTHEVILLE    MOSUNNY   81  77  88 S6        30.00S HX  88
NW BLYTHEVILLE MOSUNNY   84  77  79 S6        29.98  HX  94
$$

ARZ022-023-033-042-044-251400-
CENTRAL ARKANSAS

CITY           SKY/WX    TMP DP  RH WIND       PRES   REMARKS
LITTLE ROCK    MOSUNNY   80  72  76 W7        30.00S
N LITTLE ROCK    N/A     78  72  81 CALM      29.97S
JACKSONVILLE   MOSUNNY   78  73  84 CALM      29.99F
SEARCY         CLOUDY    77  73  87 S6        30.00F
HOT SPRINGS    MOSUNNY   77  73  87 CALM      30.01F
RUSSELLVILLE   SUNNY     75  71  87 VRB3      29.99S
$$

ARZ036-251400-
EAST ARKANSAS

CITY           SKY/WX    TMP DP  RH WIND       PRES   REMARKS
WEST MEMPHIS   CLOUDY    79  78  97 S8        29.99S FOG
$$

ARZ050-053-066-070-073-251400-
SOUTHWEST ARKANSAS

CITY           SKY/WX    TMP DP  RH WIND       PRES   REMARKS
CAMDEN         LGT RAIN  75  72  88 CALM      30.00S
TEXARKANA      MOSUNNY   74  71  91 CALM      30.00F
EL DORADO      MOSUNNY   74  72  93 CALM      30.02R
DE QUEEN       SUNNY     77  75  93 CALM      29.98F FOG
$$

ARZ056-057-069-251400-
SOUTHEAST ARKANSAS

CITY           SKY/WX    TMP DP  RH WIND       PRES   REMARKS
PINE BLUFF     SUNNY     77  72  84 CALM      30.00F
STUTTGART      SUNNY     81  73  78 SW5       30.00S HX  85
MONTICELLO     SUNNY     78  75  90 NW5       30.01R

$$






USA.gov is the U.S. government's official web portal to all federal, state and local government web resources and services.